Weather History for KMGE - April, 2013

Change the Weather History Date:

Monday, April 22, 2013

  Actual Average Record
Temperature  
Mean Temperature 58 °F -  
Max Temperature 68 °F 70 °F 80 °F (1999)
Min Temperature 48 °F 50 °F 41 °F (2009)
Degree Days  
Heating Degree Days 7    
Growing Degree Days 8 (Base 50)    
Moisture  
Dew Point 42 °F    
Average Humidity 57    
Maximum Humidity 73    
Minimum Humidity 44    
Precipitation  
Precipitation 0.00 in - - ()
Sea Level Pressure  
Sea Level Pressure 30.25 in    
Wind  
Wind Speed 7 mph (East)    
Max Wind Speed 13 mph    
Max Gust Speed 23 mph    
Visibility 10 miles    
Events      
Averages and records for this station are not official NWS values.
T = Trace of Precipitation, MM = Missing Value Source: NWS Daily Summary

Daily Weather History Graph

Daily Weather History Graph

Search for Another Location

Airport or City:

Trip Planner

Search our weather history database for the weather conditions in past years. The results will help you decide how hot, cold, wet, or windy it might be!

Date:

Astronomy

Apr. 22, 2013 Rise Set
Actual Time 6:58 AM EDT 8:14 PM EDT
Civil Twilight 6:32 AM EDT 8:41 PM EDT
Nautical Twilight 6:01 AM EDT 9:12 PM EDT
Astronomical Twilight 5:29 AM EDT 9:44 PM EDT
Moon 5:10 PM EDT (4/22) 4:43 AM EDT (4/22)
Length of Visible Light 14h 08m
Length of Day
13h 16m
Waxing Gibbous, 87% of the Moon is Illuminated
Apr 22
Waxing Gibbous
Apr 25
Full
May 2
Last Quarter
May 9
New
May 18
First Quarter

Hourly Weather History & Observations

Time (EDT) Temp. Dew Point Humidity Pressure Visibility Wind Dir Wind Speed Gust Speed Precip Events Conditions
12:58 AM 55.0 °F 40.5 °F 58% 30.29 in 10.0 mi East 5.8 mph - N/A   Clear
1:58 AM 54.0 °F 40.6 °F 61% 30.28 in 10.0 mi Variable 4.6 mph - N/A   Clear
2:58 AM 53.2 °F 40.1 °F 61% 30.27 in 10.0 mi East 8.1 mph - N/A   Clear
3:58 AM 52.2 °F 40.8 °F 65% 30.26 in 10.0 mi East 8.1 mph - N/A   Clear
4:58 AM 51.1 °F 40.8 °F 68% 30.27 in 10.0 mi Variable 6.9 mph - N/A   Clear
5:58 AM 49.6 °F 41.2 °F 73% 30.29 in 10.0 mi East 6.9 mph - N/A   Clear
6:58 AM 48.7 °F 40.5 °F 73% 30.31 in 10.0 mi East 6.9 mph - N/A   Mostly Cloudy
7:58 AM 49.5 °F 39.4 °F 68% 30.31 in 10.0 mi East 6.9 mph 20.7 mph N/A   Partly Cloudy
8:58 AM 51.8 °F 36.9 °F 57% 30.32 in 10.0 mi East 11.5 mph 23.0 mph N/A   Partly Cloudy
9:58 AM 54.3 °F 37.6 °F 53% 30.31 in 10.0 mi ENE 8.1 mph - N/A   Clear
10:58 AM 57.7 °F 39.4 °F 50% 30.32 in 10.0 mi East 10.4 mph 18.4 mph N/A   Partly Cloudy
11:58 AM 59.7 °F 40.1 °F 48% 30.31 in 10.0 mi ESE 12.7 mph 18.4 mph N/A   Partly Cloudy
12:58 PM 61.9 °F 41.9 °F 48% 30.28 in 10.0 mi East 8.1 mph - N/A   Partly Cloudy
1:58 PM 63.9 °F 43.2 °F 47% 30.26 in 10.0 mi East 6.9 mph - N/A   Scattered Clouds
2:58 PM 65.5 °F 43.7 °F 45% 30.24 in 10.0 mi East 9.2 mph - N/A   Scattered Clouds
3:58 PM 67.8 °F 45.5 °F 45% 30.19 in 10.0 mi East 5.8 mph - N/A   Mostly Cloudy
4:58 PM 68.0 °F 45.9 °F 45% 30.17 in 10.0 mi ESE 5.8 mph - N/A   Scattered Clouds
5:58 PM 68.4 °F 45.5 °F 44% 30.16 in 10.0 mi East 6.9 mph - N/A   Partly Cloudy
6:58 PM 66.7 °F 45.9 °F 47% 30.16 in 10.0 mi ESE 6.9 mph - N/A   Scattered Clouds
7:58 PM 64.6 °F 46.2 °F 51% 30.17 in 10.0 mi East 4.6 mph - N/A   Scattered Clouds
8:58 PM 60.6 °F 46.2 °F 59% 30.18 in 10.0 mi ESE 8.1 mph - N/A   Partly Cloudy
9:58 PM 58.5 °F 46.2 °F 64% 30.20 in 10.0 mi East 6.9 mph - N/A   Partly Cloudy
10:58 PM 56.8 °F 45.5 °F 66% 30.21 in 10.0 mi ENE 3.5 mph - N/A   Clear
11:58 PM 55.9 °F 44.1 °F 64% 30.21 in 10.0 mi ENE 3.5 mph - N/A   Clear